KAZSAT-2

Last updated on Thu Nov 21 2024 00:02:41 GMT+0000 (Coordinated Universal Time)

1 37749U 11035B 24324.81214931 -.00000197 00000+0 00000+0 0 9990 2 37749 0.0171 296.7342 0001569 347.5473 153.9293 1.00271760 47623
UTC large
Height (km)
Speed (km/s)
/
Latitude / Longitude
Inclination (degrees)
Orbital Period (minutes)
Azimuth
Elevation
Range (km)
Doppler Factor

Next 0 passes for location: London (51.5072 / 0.1276)

Sorry there are no passes over London.